Year,Month,Day,Hour,Minute,Value (Times are PST for windgust in km/hr)
2010,07,10,00,00,8.10
2010,07,10,00,01,8.10
2010,07,10,00,02,8.10
2010,07,10,00,03,11.30
2010,07,10,00,04,9.60
2010,07,10,00,05,6.40
2010,07,10,00,06,11.30
2010,07,10,00,07,9.60
2010,07,10,00,08,8.10
2010,07,10,00,09,6.40
2010,07,10,00,10,6.40
2010,07,10,00,11,9.60
2010,07,10,00,12,8.10
2010,07,10,00,13,11.30
2010,07,10,00,14,9.60
2010,07,10,00,15,9.60
2010,07,10,00,16,11.30
2010,07,10,00,17,9.60
2010,07,10,00,18,6.40
2010,07,10,00,19,4.80
2010,07,10,00,20,6.40
2010,07,10,00,21,1.60
2010,07,10,00,22,4.80
2010,07,10,00,23,4.80
2010,07,10,00,24,6.40
2010,07,10,00,25,6.40
2010,07,10,00,26,4.80
2010,07,10,00,27,8.10
2010,07,10,00,28,8.10
2010,07,10,00,29,8.10
2010,07,10,00,30,6.40
2010,07,10,00,31,6.40
2010,07,10,00,32,8.10
2010,07,10,00,33,8.10
2010,07,10,00,34,9.60
2010,07,10,00,35,8.10
2010,07,10,00,36,4.80
2010,07,10,00,37,9.60
2010,07,10,00,38,4.80
2010,07,10,00,39,6.40
2010,07,10,00,40,6.40
2010,07,10,00,41,8.10
2010,07,10,00,42,8.10
2010,07,10,00,43,6.40
2010,07,10,00,44,8.10
2010,07,10,00,45,4.80
2010,07,10,00,46,4.80
2010,07,10,00,47,3.20
2010,07,10,00,48,6.40
2010,07,10,00,49,4.80
2010,07,10,00,50,6.40
2010,07,10,00,51,6.40
2010,07,10,00,52,6.40
2010,07,10,00,53,4.80
2010,07,10,00,54,4.80
2010,07,10,00,55,8.10
2010,07,10,00,56,6.40
2010,07,10,00,57,8.10
2010,07,10,00,58,11.30
2010,07,10,00,59,8.10
2010,07,10,01,00,3.20
2010,07,10,01,01,4.80
2010,07,10,01,02,8.10
2010,07,10,01,03,6.40
2010,07,10,01,04,8.10
2010,07,10,01,05,11.30
2010,07,10,01,06,6.40
2010,07,10,01,07,8.10
2010,07,10,01,08,8.10
2010,07,10,01,09,8.10
2010,07,10,01,10,8.10
2010,07,10,01,11,8.10
2010,07,10,01,12,9.60
2010,07,10,01,13,4.80
2010,07,10,01,14,6.40
2010,07,10,01,15,4.80
2010,07,10,01,16,1.60
2010,07,10,01,17,8.10
2010,07,10,01,18,3.20
2010,07,10,01,19,4.80
2010,07,10,01,20,6.40
2010,07,10,01,21,8.10
2010,07,10,01,22,8.10
2010,07,10,01,23,6.40
2010,07,10,01,24,3.20
2010,07,10,01,25,3.20
2010,07,10,01,26,6.40
2010,07,10,01,27,9.60
2010,07,10,01,28,9.60
2010,07,10,01,29,9.60
2010,07,10,01,30,4.80
2010,07,10,01,31,8.10
2010,07,10,01,32,8.10
2010,07,10,01,33,6.40
2010,07,10,01,34,12.90
2010,07,10,01,35,9.60
2010,07,10,01,36,11.30
2010,07,10,01,37,8.10
2010,07,10,01,38,11.30
2010,07,10,01,39,9.60
2010,07,10,01,40,9.60
2010,07,10,01,41,6.40
2010,07,10,01,42,9.60
2010,07,10,01,43,9.60
2010,07,10,01,44,11.30
2010,07,10,01,45,9.60
2010,07,10,01,46,9.60
2010,07,10,01,47,8.10
2010,07,10,01,48,6.40
2010,07,10,01,49,9.60
2010,07,10,01,50,11.30
2010,07,10,01,51,14.50
2010,07,10,01,52,11.30
2010,07,10,01,53,9.60
2010,07,10,01,54,9.60
2010,07,10,01,55,11.30
2010,07,10,01,56,11.30
2010,07,10,01,57,14.50
2010,07,10,01,58,11.30
2010,07,10,01,59,11.30
2010,07,10,02,00,12.90
2010,07,10,02,01,17.70
2010,07,10,02,02,9.60
2010,07,10,02,03,8.10
2010,07,10,02,04,12.90
2010,07,10,02,05,11.30
2010,07,10,02,06,16.10
2010,07,10,02,07,14.50
2010,07,10,02,08,8.10
2010,07,10,02,09,8.10
2010,07,10,02,10,14.50
2010,07,10,02,11,9.60
2010,07,10,02,12,8.10
2010,07,10,02,13,16.10
2010,07,10,02,14,11.30
2010,07,10,02,15,11.30
2010,07,10,02,16,14.50
2010,07,10,02,17,14.50
2010,07,10,02,18,14.50
2010,07,10,02,19,9.60
2010,07,10,02,20,14.50
2010,07,10,02,21,11.30
2010,07,10,02,22,14.50
2010,07,10,02,23,14.50
2010,07,10,02,24,12.90
2010,07,10,02,25,14.50
2010,07,10,02,26,11.30
2010,07,10,02,27,14.50
2010,07,10,02,28,14.50
2010,07,10,02,29,12.90
2010,07,10,02,30,9.60
2010,07,10,02,31,14.50
2010,07,10,02,32,9.60
2010,07,10,02,33,11.30
2010,07,10,02,34,11.30
2010,07,10,02,35,11.30
2010,07,10,02,36,11.30
2010,07,10,02,37,11.30
2010,07,10,02,38,11.30
2010,07,10,02,39,14.50
2010,07,10,02,40,9.60
2010,07,10,02,41,11.30
2010,07,10,02,42,9.60
2010,07,10,02,43,11.30
2010,07,10,02,44,11.30
2010,07,10,02,45,8.10
2010,07,10,02,46,9.60
2010,07,10,02,47,8.10
2010,07,10,02,48,9.60
2010,07,10,02,49,9.60
2010,07,10,02,50,6.40
2010,07,10,02,51,8.10
2010,07,10,02,52,8.10
2010,07,10,02,53,11.30
2010,07,10,02,54,9.60
2010,07,10,02,55,9.60
2010,07,10,02,56,11.30
2010,07,10,02,57,9.60
2010,07,10,02,58,8.10
2010,07,10,02,59,6.40
2010,07,10,03,00,8.10
2010,07,10,03,01,8.10
2010,07,10,03,02,11.30
2010,07,10,03,03,16.10
2010,07,10,03,04,12.90
2010,07,10,03,05,16.10
2010,07,10,03,06,16.10
2010,07,10,03,07,14.50
2010,07,10,03,08,9.60
2010,07,10,03,09,11.30
2010,07,10,03,10,11.30
2010,07,10,03,11,12.90
2010,07,10,03,12,11.30
2010,07,10,03,13,16.10
2010,07,10,03,14,9.60
2010,07,10,03,15,14.50
2010,07,10,03,16,9.60
2010,07,10,03,17,9.60
2010,07,10,03,18,14.50
2010,07,10,03,19,17.70
2010,07,10,03,20,9.60
2010,07,10,03,21,9.60
2010,07,10,03,22,11.30
2010,07,10,03,23,14.50
2010,07,10,03,24,14.50
2010,07,10,03,25,9.60
2010,07,10,03,26,17.70
2010,07,10,03,27,14.50
2010,07,10,03,28,14.50
2010,07,10,03,29,9.60
2010,07,10,03,30,8.10
2010,07,10,03,31,11.30
2010,07,10,03,32,16.10
2010,07,10,03,33,11.30
2010,07,10,03,34,11.30
2010,07,10,03,35,11.30
2010,07,10,03,36,14.50
2010,07,10,03,37,12.90
2010,07,10,03,38,9.60
2010,07,10,03,39,14.50
2010,07,10,03,40,14.50
2010,07,10,03,41,12.90
2010,07,10,03,42,14.50
2010,07,10,03,43,8.10
2010,07,10,03,44,8.10
2010,07,10,03,45,11.30
2010,07,10,03,46,11.30
2010,07,10,03,47,6.40
2010,07,10,03,48,9.60
2010,07,10,03,49,9.60
2010,07,10,03,50,11.30
2010,07,10,03,51,8.10
2010,07,10,03,52,9.60
2010,07,10,03,53,8.10
2010,07,10,03,54,9.60
2010,07,10,03,55,9.60
2010,07,10,03,56,9.60
2010,07,10,03,57,8.10
2010,07,10,03,58,6.40
2010,07,10,03,59,9.60
2010,07,10,04,00,6.40
2010,07,10,04,01,6.40
2010,07,10,04,02,8.10
2010,07,10,04,03,8.10
2010,07,10,04,04,8.10
2010,07,10,04,05,8.10
2010,07,10,04,06,6.40
2010,07,10,04,07,8.10
2010,07,10,04,08,6.40
2010,07,10,04,09,3.20
2010,07,10,04,10,6.40
2010,07,10,04,11,4.80
2010,07,10,04,12,6.40
2010,07,10,04,13,4.80
2010,07,10,04,14,8.10
2010,07,10,04,15,8.10
2010,07,10,04,16,6.40
2010,07,10,04,17,4.80
2010,07,10,04,18,8.10
2010,07,10,04,19,6.40
2010,07,10,04,20,8.10
2010,07,10,04,21,4.80
2010,07,10,04,22,8.10
2010,07,10,04,23,6.40
2010,07,10,04,24,8.10
2010,07,10,04,25,6.40
2010,07,10,04,26,8.10
2010,07,10,04,27,4.80
2010,07,10,04,28,4.80
2010,07,10,04,29,3.20
2010,07,10,04,30,1.60
2010,07,10,04,31,3.20
2010,07,10,04,33,1.60
2010,07,10,04,34,4.80
2010,07,10,04,35,3.20
2010,07,10,04,36,3.20
2010,07,10,04,37,1.60
2010,07,10,04,38,3.20
2010,07,10,04,39,3.20
2010,07,10,04,40,3.20
2010,07,10,04,41,8.10
2010,07,10,04,42,4.80
2010,07,10,04,43,9.60
2010,07,10,04,44,6.40
2010,07,10,04,45,6.40
2010,07,10,04,46,4.80
2010,07,10,04,47,3.20
2010,07,10,04,49,1.60
2010,07,10,04,50,1.60
2010,07,10,04,51,8.10
2010,07,10,04,52,6.40
2010,07,10,04,53,4.80
2010,07,10,04,54,4.80
2010,07,10,04,55,4.80
2010,07,10,04,56,6.40
2010,07,10,04,57,8.10
2010,07,10,04,58,8.10
2010,07,10,04,59,9.60
2010,07,10,05,00,8.10
2010,07,10,05,01,6.40
2010,07,10,05,02,6.40
2010,07,10,05,03,8.10
2010,07,10,05,04,8.10
2010,07,10,05,05,3.20
2010,07,10,05,06,4.80
2010,07,10,05,07,9.60
2010,07,10,05,08,6.40
2010,07,10,05,09,6.40
2010,07,10,05,10,9.60
2010,07,10,05,11,8.10
2010,07,10,05,12,6.40
2010,07,10,05,13,8.10
2010,07,10,05,14,8.10
2010,07,10,05,15,8.10
2010,07,10,05,16,6.40
2010,07,10,05,17,8.10
2010,07,10,05,18,6.40
2010,07,10,05,19,6.40
2010,07,10,05,20,4.80
2010,07,10,05,21,3.20
2010,07,10,05,22,4.80
2010,07,10,05,23,4.80
2010,07,10,05,24,4.80
2010,07,10,05,25,6.40
2010,07,10,05,26,6.40
2010,07,10,05,27,6.40
2010,07,10,05,28,6.40
2010,07,10,05,29,6.40
2010,07,10,05,30,4.80
2010,07,10,05,31,4.80
2010,07,10,05,32,3.20
2010,07,10,05,33,3.20
2010,07,10,05,35,3.20
2010,07,10,05,36,3.20
2010,07,10,05,37,1.60
2010,07,10,05,39,1.60
2010,07,10,05,40,3.20
2010,07,10,05,47,1.60
2010,07,10,05,49,3.20
2010,07,10,05,50,3.20
2010,07,10,05,51,1.60
2010,07,10,05,52,1.60
2010,07,10,05,53,1.60
2010,07,10,05,54,1.60
2010,07,10,05,55,3.20
2010,07,10,05,56,1.60
2010,07,10,05,58,3.20
2010,07,10,05,59,1.60
2010,07,10,06,00,1.60
2010,07,10,06,02,1.60
2010,07,10,06,03,1.60
2010,07,10,06,04,1.60
2010,07,10,06,06,1.60
2010,07,10,06,07,1.60
2010,07,10,06,09,3.20
2010,07,10,06,10,1.60
2010,07,10,06,14,1.60
2010,07,10,06,15,3.20
2010,07,10,06,18,1.60
2010,07,10,06,22,1.60
2010,07,10,06,25,1.60
2010,07,10,06,27,1.60
2010,07,10,06,29,1.60
2010,07,10,06,31,1.60
2010,07,10,06,32,1.60
2010,07,10,06,36,1.60
2010,07,10,06,38,1.60
2010,07,10,06,39,1.60
2010,07,10,06,40,1.60
2010,07,10,06,41,1.60
2010,07,10,06,42,3.20
2010,07,10,06,43,1.60
2010,07,10,06,45,3.20
2010,07,10,06,46,3.20
2010,07,10,06,47,3.20
2010,07,10,06,48,1.60
2010,07,10,06,50,1.60
2010,07,10,06,51,1.60
2010,07,10,06,52,1.60
2010,07,10,06,53,1.60
2010,07,10,06,54,1.60
2010,07,10,06,55,1.60
2010,07,10,06,56,3.20
2010,07,10,06,57,4.80
2010,07,10,06,58,4.80
2010,07,10,06,59,4.80
2010,07,10,07,00,4.80
2010,07,10,07,01,1.60
2010,07,10,07,02,3.20
2010,07,10,07,03,3.20
2010,07,10,07,04,4.80
2010,07,10,07,05,1.60
2010,07,10,07,06,1.60
2010,07,10,07,07,3.20
2010,07,10,07,08,3.20
2010,07,10,07,09,6.40
2010,07,10,07,10,4.80
2010,07,10,07,11,3.20
2010,07,10,07,12,1.60
2010,07,10,07,13,1.60
2010,07,10,07,14,3.20
2010,07,10,07,15,1.60
2010,07,10,07,16,1.60
2010,07,10,07,17,1.60
2010,07,10,07,19,1.60
2010,07,10,07,20,1.60
2010,07,10,07,21,1.60
2010,07,10,07,24,1.60
2010,07,10,07,25,3.20
2010,07,10,07,26,3.20
2010,07,10,07,27,6.40
2010,07,10,07,28,6.40
2010,07,10,07,29,6.40
2010,07,10,07,30,6.40
2010,07,10,07,31,8.10
2010,07,10,07,32,8.10
2010,07,10,07,33,4.80
2010,07,10,07,34,3.20
2010,07,10,07,35,3.20
2010,07,10,07,36,3.20
2010,07,10,07,37,3.20
2010,07,10,07,38,4.80
2010,07,10,07,39,4.80
2010,07,10,07,40,4.80
2010,07,10,07,41,9.60
2010,07,10,07,42,6.40
2010,07,10,07,43,6.40
2010,07,10,07,44,9.60
2010,07,10,07,45,8.10
2010,07,10,07,46,6.40
2010,07,10,07,47,4.80
2010,07,10,07,48,3.20
2010,07,10,07,49,4.80
2010,07,10,07,50,4.80
2010,07,10,07,51,6.40
2010,07,10,07,52,8.10
2010,07,10,07,53,6.40
2010,07,10,07,54,6.40
2010,07,10,07,55,1.60
2010,07,10,07,56,6.40
2010,07,10,07,57,6.40
2010,07,10,07,58,8.10
2010,07,10,07,59,8.10
2010,07,10,08,00,8.10
2010,07,10,08,01,6.40
2010,07,10,08,02,8.10
2010,07,10,08,03,8.10
2010,07,10,08,04,3.20
2010,07,10,08,05,4.80
2010,07,10,08,06,8.10
2010,07,10,08,07,6.40
2010,07,10,08,08,4.80
2010,07,10,08,09,3.20
2010,07,10,08,10,3.20
2010,07,10,08,11,3.20
2010,07,10,08,12,4.80
2010,07,10,08,13,3.20
2010,07,10,08,14,4.80
2010,07,10,08,15,4.80
2010,07,10,08,16,3.20
2010,07,10,08,17,4.80
2010,07,10,08,18,3.20
2010,07,10,08,19,1.60
2010,07,10,08,20,4.80
2010,07,10,08,21,3.20
2010,07,10,08,22,3.20
2010,07,10,08,23,4.80
2010,07,10,08,24,4.80
2010,07,10,08,25,4.80
2010,07,10,08,26,4.80
2010,07,10,08,27,4.80
2010,07,10,08,28,3.20
2010,07,10,08,29,1.60
2010,07,10,08,30,1.60
2010,07,10,08,31,3.20
2010,07,10,08,32,6.40
2010,07,10,08,33,4.80
2010,07,10,08,34,4.80
2010,07,10,08,35,8.10
2010,07,10,08,36,6.40
2010,07,10,08,37,8.10
2010,07,10,08,38,4.80
2010,07,10,08,39,4.80
2010,07,10,08,40,1.60
2010,07,10,08,41,3.20
2010,07,10,08,42,6.40
2010,07,10,08,43,1.60
2010,07,10,08,44,8.10
2010,07,10,08,45,6.40
2010,07,10,08,46,6.40
2010,07,10,08,47,6.40
2010,07,10,08,48,1.60
2010,07,10,08,49,3.20
2010,07,10,08,50,4.80
2010,07,10,08,51,3.20
2010,07,10,08,52,4.80
2010,07,10,08,53,4.80
2010,07,10,08,54,6.40
2010,07,10,08,55,8.10
2010,07,10,08,56,9.60
2010,07,10,08,57,8.10
2010,07,10,08,58,6.40
2010,07,10,08,59,8.10
2010,07,10,09,00,6.40
2010,07,10,09,01,8.10
2010,07,10,09,02,9.60
2010,07,10,09,03,4.80
2010,07,10,09,04,6.40
2010,07,10,09,05,4.80
2010,07,10,09,06,8.10
2010,07,10,09,07,6.40
2010,07,10,09,08,1.60
2010,07,10,09,09,6.40
2010,07,10,09,10,8.10
2010,07,10,09,11,3.20
2010,07,10,09,12,6.40
2010,07,10,09,13,6.40
2010,07,10,09,14,6.40
2010,07,10,09,15,8.10
2010,07,10,09,16,8.10
2010,07,10,09,17,9.60
2010,07,10,09,18,8.10
2010,07,10,09,19,8.10
2010,07,10,09,20,4.80
2010,07,10,09,21,6.40
2010,07,10,09,22,4.80
2010,07,10,09,23,4.80
2010,07,10,09,24,6.40
2010,07,10,09,25,4.80
2010,07,10,09,26,11.30
2010,07,10,09,27,9.60
2010,07,10,09,28,6.40
2010,07,10,09,29,6.40
2010,07,10,09,30,8.10
2010,07,10,09,31,3.20
2010,07,10,09,32,9.60
2010,07,10,09,33,3.20
2010,07,10,09,34,4.80
2010,07,10,09,35,1.60
2010,07,10,09,36,3.20
2010,07,10,09,37,6.40
2010,07,10,09,38,4.80
2010,07,10,09,39,6.40
2010,07,10,09,40,4.80
2010,07,10,09,41,3.20
2010,07,10,09,42,3.20
2010,07,10,09,43,3.20
2010,07,10,09,44,4.80
2010,07,10,09,45,6.40
2010,07,10,09,46,8.10
2010,07,10,09,47,9.60
2010,07,10,09,48,8.10
2010,07,10,09,49,9.60
2010,07,10,09,50,6.40
2010,07,10,09,51,9.60
2010,07,10,09,52,9.60
2010,07,10,09,53,8.10
2010,07,10,09,54,11.30
2010,07,10,09,55,9.60
2010,07,10,09,56,8.10
2010,07,10,09,57,11.30
2010,07,10,09,58,8.10
2010,07,10,09,59,9.60
2010,07,10,10,00,6.40
2010,07,10,10,01,6.40
2010,07,10,10,02,4.80
2010,07,10,10,03,4.80
2010,07,10,10,04,9.60
2010,07,10,10,05,8.10
2010,07,10,10,06,8.10
2010,07,10,10,07,8.10
2010,07,10,10,08,11.30
2010,07,10,10,09,8.10
2010,07,10,10,10,4.80
2010,07,10,10,11,4.80
2010,07,10,10,12,6.40
2010,07,10,10,13,1.60
2010,07,10,10,14,4.80
2010,07,10,10,15,9.60
2010,07,10,10,16,6.40
2010,07,10,10,17,4.80
2010,07,10,10,18,4.80
2010,07,10,10,19,4.80
2010,07,10,10,20,8.10
2010,07,10,10,21,9.60
2010,07,10,10,22,14.50
2010,07,10,10,23,9.60
2010,07,10,10,24,11.30
2010,07,10,10,25,9.60
2010,07,10,10,26,11.30
2010,07,10,10,27,16.10
2010,07,10,10,28,16.10
2010,07,10,10,29,11.30
2010,07,10,10,30,11.30
2010,07,10,10,31,11.30
2010,07,10,10,32,11.30
2010,07,10,10,33,9.60
2010,07,10,10,34,8.10
2010,07,10,10,35,8.10
2010,07,10,10,36,4.80
2010,07,10,10,37,8.10
2010,07,10,10,38,6.40
2010,07,10,10,39,6.40
2010,07,10,10,40,14.50
2010,07,10,10,41,3.20
2010,07,10,10,42,1.60
2010,07,10,10,43,6.40
2010,07,10,10,44,11.30
2010,07,10,10,45,9.60
2010,07,10,10,46,4.80
2010,07,10,10,47,9.60
2010,07,10,10,48,16.10
2010,07,10,10,49,9.60
2010,07,10,10,50,11.30
2010,07,10,10,51,9.60
2010,07,10,10,52,6.40
2010,07,10,10,53,11.30
2010,07,10,10,54,11.30
2010,07,10,10,55,11.30
2010,07,10,10,56,16.10
2010,07,10,10,57,14.50
2010,07,10,10,58,11.30
2010,07,10,10,59,9.60
2010,07,10,11,00,9.60
2010,07,10,11,01,11.30
2010,07,10,11,02,9.60
2010,07,10,11,03,11.30
2010,07,10,11,04,11.30
2010,07,10,11,05,12.90
2010,07,10,11,06,11.30
2010,07,10,11,07,14.50
2010,07,10,11,08,16.10
2010,07,10,11,09,11.30
2010,07,10,11,10,12.90
2010,07,10,11,11,16.10
2010,07,10,11,12,11.30
2010,07,10,11,13,12.90
2010,07,10,11,14,11.30
2010,07,10,11,15,12.90
2010,07,10,11,16,8.10
2010,07,10,11,17,11.30
2010,07,10,11,18,6.40
2010,07,10,11,19,9.60
2010,07,10,11,20,6.40
2010,07,10,11,21,12.90
2010,07,10,11,22,11.30
2010,07,10,11,23,9.60
2010,07,10,11,24,9.60
2010,07,10,11,25,4.80
2010,07,10,11,26,12.90
2010,07,10,11,27,11.30
2010,07,10,11,28,6.40
2010,07,10,11,29,12.90
2010,07,10,11,30,17.70
2010,07,10,11,31,11.30
2010,07,10,11,32,17.70
2010,07,10,11,33,17.70
2010,07,10,11,34,17.70
2010,07,10,11,35,12.90
2010,07,10,11,36,8.10
2010,07,10,11,37,11.30
2010,07,10,11,38,17.70
2010,07,10,11,39,16.10
2010,07,10,11,40,11.30
2010,07,10,11,41,16.10
2010,07,10,11,42,9.60
2010,07,10,11,43,19.30
2010,07,10,11,44,14.50
2010,07,10,11,45,14.50
2010,07,10,11,46,14.50
2010,07,10,11,47,11.30
2010,07,10,11,48,14.50
2010,07,10,11,49,12.90
2010,07,10,11,50,12.90
2010,07,10,11,51,16.10
2010,07,10,11,52,16.10
2010,07,10,11,53,11.30
2010,07,10,11,54,11.30
2010,07,10,11,55,14.50
2010,07,10,11,56,14.50
2010,07,10,11,57,12.90
2010,07,10,11,58,9.60
2010,07,10,11,59,9.60
2010,07,10,12,00,12.90
2010,07,10,12,01,11.30
2010,07,10,12,02,12.90
2010,07,10,12,03,11.30
2010,07,10,12,04,8.10
2010,07,10,12,05,9.60
2010,07,10,12,06,8.10
2010,07,10,12,07,8.10
2010,07,10,12,08,4.80
2010,07,10,12,09,8.10
2010,07,10,12,10,6.40
2010,07,10,12,11,14.50
2010,07,10,12,12,14.50
2010,07,10,12,13,11.30
2010,07,10,12,14,9.60
2010,07,10,12,15,9.60
2010,07,10,12,16,11.30
2010,07,10,12,17,11.30
2010,07,10,12,18,16.10
2010,07,10,12,19,11.30
2010,07,10,12,20,14.50
2010,07,10,12,21,14.50
2010,07,10,12,22,14.50
2010,07,10,12,23,14.50
2010,07,10,12,24,16.10
2010,07,10,12,25,12.90
2010,07,10,12,26,11.30
2010,07,10,12,27,14.50
2010,07,10,12,28,14.50
2010,07,10,12,29,6.40
2010,07,10,12,30,9.60
2010,07,10,12,31,9.60
2010,07,10,12,32,9.60
2010,07,10,12,33,12.90
2010,07,10,12,34,11.30
2010,07,10,12,35,11.30
2010,07,10,12,36,11.30
2010,07,10,12,37,14.50
2010,07,10,12,38,9.60
2010,07,10,12,39,11.30
2010,07,10,12,40,11.30
2010,07,10,12,41,11.30
2010,07,10,12,42,12.90
2010,07,10,12,43,11.30
2010,07,10,12,44,9.60
2010,07,10,12,45,14.50
2010,07,10,12,46,9.60
2010,07,10,12,47,16.10
2010,07,10,12,48,9.60
2010,07,10,12,49,11.30
2010,07,10,12,50,9.60
2010,07,10,12,51,12.90
2010,07,10,12,52,12.90
2010,07,10,12,53,14.50
2010,07,10,12,54,16.10
2010,07,10,12,55,8.10
2010,07,10,12,56,11.30
2010,07,10,12,57,11.30
2010,07,10,12,58,19.30
2010,07,10,12,59,11.30
2010,07,10,13,00,4.80
2010,07,10,13,01,3.20
2010,07,10,13,02,9.60
2010,07,10,13,03,12.90
2010,07,10,13,04,9.60
2010,07,10,13,05,9.60
2010,07,10,13,06,14.50
2010,07,10,13,07,14.50
2010,07,10,13,08,16.10
2010,07,10,13,09,8.10
2010,07,10,13,10,8.10
2010,07,10,13,11,6.40
2010,07,10,13,12,11.30
2010,07,10,13,13,14.50
2010,07,10,13,14,16.10
2010,07,10,13,15,12.90
2010,07,10,13,16,9.60
2010,07,10,13,17,14.50
2010,07,10,13,18,8.10
2010,07,10,13,19,11.30
2010,07,10,13,20,11.30
2010,07,10,13,21,11.30
2010,07,10,13,22,14.50
2010,07,10,13,23,17.70
2010,07,10,13,24,14.50
2010,07,10,13,25,16.10
2010,07,10,13,26,11.30
2010,07,10,13,27,11.30
2010,07,10,13,28,11.30
2010,07,10,13,29,9.60
2010,07,10,13,30,19.30
2010,07,10,13,31,17.70
2010,07,10,13,32,14.50
2010,07,10,13,33,11.30
2010,07,10,13,34,9.60
2010,07,10,13,35,9.60
2010,07,10,13,36,12.90
2010,07,10,13,37,12.90
2010,07,10,13,38,14.50
2010,07,10,13,39,16.10
2010,07,10,13,40,14.50
2010,07,10,13,41,14.50
2010,07,10,13,42,14.50
2010,07,10,13,43,19.30
2010,07,10,13,44,17.70
2010,07,10,13,45,16.10
2010,07,10,13,46,16.10
2010,07,10,13,47,12.90
2010,07,10,13,48,12.90
2010,07,10,13,49,16.10
2010,07,10,13,50,12.90
2010,07,10,13,51,11.30
2010,07,10,13,52,12.90
2010,07,10,13,53,9.60
2010,07,10,13,54,11.30
2010,07,10,13,55,14.50
2010,07,10,13,56,11.30
2010,07,10,13,57,9.60
2010,07,10,13,58,16.10
2010,07,10,13,59,16.10
2010,07,10,14,00,11.30
2010,07,10,14,01,16.10
2010,07,10,14,02,11.30
2010,07,10,14,03,11.30
2010,07,10,14,04,9.60
2010,07,10,14,05,8.10
2010,07,10,14,06,8.10
2010,07,10,14,07,11.30
2010,07,10,14,08,11.30
2010,07,10,14,09,16.10
2010,07,10,14,10,16.10
2010,07,10,14,11,17.70
2010,07,10,14,12,14.50
2010,07,10,14,13,11.30
2010,07,10,14,14,16.10
2010,07,10,14,15,11.30
2010,07,10,14,16,14.50
2010,07,10,14,17,17.70
2010,07,10,14,18,17.70
2010,07,10,14,19,16.10
2010,07,10,14,20,17.70
2010,07,10,14,21,16.10
2010,07,10,14,22,9.60
2010,07,10,14,23,12.90
2010,07,10,14,24,16.10
2010,07,10,14,25,17.70
2010,07,10,14,26,11.30
2010,07,10,14,27,8.10
2010,07,10,14,28,9.60
2010,07,10,14,29,9.60
2010,07,10,14,30,9.60
2010,07,10,14,31,11.30
2010,07,10,14,32,8.10
2010,07,10,14,33,8.10
2010,07,10,14,34,11.30
2010,07,10,14,35,11.30
2010,07,10,14,36,4.80
2010,07,10,14,37,19.30
2010,07,10,14,38,16.10
2010,07,10,14,39,9.60
2010,07,10,14,40,16.10
2010,07,10,14,41,14.50
2010,07,10,14,42,16.10
2010,07,10,14,43,11.30
2010,07,10,14,44,14.50
2010,07,10,14,45,16.10
2010,07,10,14,46,14.50
2010,07,10,14,47,16.10
2010,07,10,14,48,16.10
2010,07,10,14,49,4.80
2010,07,10,14,50,4.80
2010,07,10,14,51,11.30
2010,07,10,14,52,17.70
2010,07,10,14,53,11.30
2010,07,10,14,54,8.10
2010,07,10,14,55,9.60
2010,07,10,14,56,9.60
2010,07,10,14,57,11.30
2010,07,10,14,58,14.50
2010,07,10,14,59,8.10
2010,07,10,15,00,9.60
2010,07,10,15,01,4.80
2010,07,10,15,02,8.10
2010,07,10,15,03,6.40
2010,07,10,15,04,9.60
2010,07,10,15,05,16.10
2010,07,10,15,06,16.10
2010,07,10,15,07,9.60
2010,07,10,15,08,9.60
2010,07,10,15,09,12.90
2010,07,10,15,10,6.40
2010,07,10,15,11,14.50
2010,07,10,15,12,9.60
2010,07,10,15,13,11.30
2010,07,10,15,14,14.50
2010,07,10,15,15,6.40
2010,07,10,15,16,9.60
2010,07,10,15,17,4.80
2010,07,10,15,18,11.30
2010,07,10,15,19,9.60
2010,07,10,15,20,11.30
2010,07,10,15,21,12.90
2010,07,10,15,22,9.60
2010,07,10,15,23,6.40
2010,07,10,15,24,14.50
2010,07,10,15,25,12.90
2010,07,10,15,26,9.60
2010,07,10,15,27,9.60
2010,07,10,15,28,8.10
2010,07,10,15,29,8.10
2010,07,10,15,30,11.30
2010,07,10,15,31,16.10
2010,07,10,15,32,14.50
2010,07,10,15,33,9.60
2010,07,10,15,34,9.60
2010,07,10,15,35,14.50
2010,07,10,15,36,14.50
2010,07,10,15,37,14.50
2010,07,10,15,38,9.60
2010,07,10,15,39,9.60
2010,07,10,15,40,11.30
2010,07,10,15,41,12.90
2010,07,10,15,42,12.90
2010,07,10,15,43,3.20
2010,07,10,15,44,8.10
2010,07,10,15,45,11.30
2010,07,10,15,46,9.60
2010,07,10,15,47,8.10
2010,07,10,15,48,8.10
2010,07,10,15,49,11.30
2010,07,10,15,50,8.10
2010,07,10,15,51,6.40
2010,07,10,15,52,8.10
2010,07,10,15,53,6.40
2010,07,10,15,54,8.10
2010,07,10,15,55,17.70
2010,07,10,15,56,9.60
2010,07,10,15,57,8.10
2010,07,10,15,58,6.40
2010,07,10,15,59,4.80
2010,07,10,16,00,11.30
2010,07,10,16,01,11.30
2010,07,10,16,02,12.90
2010,07,10,16,03,8.10
2010,07,10,16,04,9.60
2010,07,10,16,05,6.40
2010,07,10,16,06,6.40
2010,07,10,16,07,11.30
2010,07,10,16,08,8.10
2010,07,10,16,09,1.60
2010,07,10,16,10,4.80
2010,07,10,16,11,9.60
2010,07,10,16,12,8.10
2010,07,10,16,13,9.60
2010,07,10,16,14,11.30
2010,07,10,16,15,9.60
2010,07,10,16,16,9.60
2010,07,10,16,17,8.10
2010,07,10,16,18,9.60
2010,07,10,16,19,11.30
2010,07,10,16,20,14.50
2010,07,10,16,21,11.30
2010,07,10,16,22,11.30
2010,07,10,16,23,4.80
2010,07,10,16,24,11.30
2010,07,10,16,25,12.90
2010,07,10,16,26,14.50
2010,07,10,16,27,11.30
2010,07,10,16,28,12.90
2010,07,10,16,29,9.60
2010,07,10,16,30,8.10
2010,07,10,16,31,8.10
2010,07,10,16,32,4.80
2010,07,10,16,33,4.80
2010,07,10,16,34,6.40
2010,07,10,16,35,11.30
2010,07,10,16,36,8.10
2010,07,10,16,37,9.60
2010,07,10,16,38,9.60
2010,07,10,16,39,9.60
2010,07,10,16,40,4.80
2010,07,10,16,41,6.40
2010,07,10,16,42,6.40
2010,07,10,16,43,8.10
2010,07,10,16,44,9.60
2010,07,10,16,45,9.60
2010,07,10,16,46,8.10
2010,07,10,16,47,6.40
2010,07,10,16,48,8.10
2010,07,10,16,49,9.60
2010,07,10,16,50,6.40
2010,07,10,16,51,8.10
2010,07,10,16,52,9.60
2010,07,10,16,53,9.60
2010,07,10,16,54,8.10
2010,07,10,16,55,8.10
2010,07,10,16,56,1.60
2010,07,10,16,57,6.40
2010,07,10,16,58,9.60
2010,07,10,16,59,8.10
2010,07,10,17,00,8.10
2010,07,10,17,01,4.80
2010,07,10,17,02,6.40
2010,07,10,17,03,6.40
2010,07,10,17,04,6.40
2010,07,10,17,05,9.60
2010,07,10,17,06,9.60
2010,07,10,17,07,8.10
2010,07,10,17,08,9.60
2010,07,10,17,09,6.40
2010,07,10,17,10,8.10
2010,07,10,17,11,11.30
2010,07,10,17,12,9.60
2010,07,10,17,13,11.30
2010,07,10,17,14,8.10
2010,07,10,17,15,11.30
2010,07,10,17,16,16.10
2010,07,10,17,17,8.10
2010,07,10,17,18,8.10
2010,07,10,17,19,14.50
2010,07,10,17,20,4.80
2010,07,10,17,21,8.10
2010,07,10,17,22,11.30
2010,07,10,17,23,11.30
2010,07,10,17,24,9.60
2010,07,10,17,25,9.60
2010,07,10,17,26,11.30
2010,07,10,17,27,9.60
2010,07,10,17,28,4.80
2010,07,10,17,29,8.10
2010,07,10,17,30,6.40
2010,07,10,17,31,8.10
2010,07,10,17,32,4.80
2010,07,10,17,33,6.40
2010,07,10,17,34,4.80
2010,07,10,17,35,8.10
2010,07,10,17,36,9.60
2010,07,10,17,37,3.20
2010,07,10,17,38,8.10
2010,07,10,17,39,9.60
2010,07,10,17,40,3.20
2010,07,10,17,41,11.30
2010,07,10,17,42,8.10
2010,07,10,17,43,9.60
2010,07,10,17,44,6.40
2010,07,10,17,45,9.60
2010,07,10,17,46,4.80
2010,07,10,17,47,8.10
2010,07,10,17,49,3.20
2010,07,10,17,50,6.40
2010,07,10,17,51,1.60
2010,07,10,17,52,8.10
2010,07,10,17,53,3.20
2010,07,10,17,54,11.30
2010,07,10,17,55,9.60
2010,07,10,17,56,8.10
2010,07,10,17,57,3.20
2010,07,10,17,58,4.80
2010,07,10,17,59,6.40
2010,07,10,18,00,3.20
2010,07,10,18,01,3.20
2010,07,10,18,02,4.80
2010,07,10,18,03,6.40
2010,07,10,18,04,6.40
2010,07,10,18,05,6.40
2010,07,10,18,06,9.60
2010,07,10,18,07,4.80
2010,07,10,18,08,6.40
2010,07,10,18,09,8.10
2010,07,10,18,10,6.40
2010,07,10,18,11,8.10
2010,07,10,18,12,6.40
2010,07,10,18,13,6.40
2010,07,10,18,14,1.60
2010,07,10,18,15,1.60
2010,07,10,18,16,6.40
2010,07,10,18,17,6.40
2010,07,10,18,18,4.80
2010,07,10,18,19,4.80
2010,07,10,18,20,8.10
2010,07,10,18,21,6.40
2010,07,10,18,22,3.20
2010,07,10,18,23,4.80
2010,07,10,18,24,4.80
2010,07,10,18,25,4.80
2010,07,10,18,26,6.40
2010,07,10,18,27,6.40
2010,07,10,18,28,4.80
2010,07,10,18,29,3.20